Location: ????
(33.5489°N, 35.4528°E)
Time: 19:20:47
(UTC+00:00)

Daily predictions for brighter satellites

Satellite Brightness Start Highest point End
(mag) Time Altitude Azimuth Time Altitude Azimuth Time Altitude Azimuth
Cosmos 2058 Rocket 3.2 15:15:51 10° S 15:20:11 80° W 15:24:33 10° N
IUS-18 SRM-1 4.4 15:09:19 10° WSW 15:21:40 39° S 15:25:10 10° ESE
YAOGAN 6 3.6 15:26:10 10° SE 15:29:13 26° ENE 15:32:15 10° NNE
NOSS 3-2 (C) 3.6 15:25:08 10° S 15:30:25 46° ESE 15:36:12 10° NE
Cosmos 1339 Rocket 4.4 15:26:03 10° S 15:32:02 65° E 15:38:06 10° NNE
Cosmos 1833 Rocket 3.1 15:34:10 10° N 15:39:25 39° ENE 15:44:38 10° SE
COSMO-SKYMED 1 2.5 15:36:00 10° NNE 15:40:21 79° E 15:44:41 10° S
Cosmos 839 Rocket 4.2 15:36:14 10° NNW 15:42:40 78° ENE 15:50:23 10° SSE
Okean-O 3.1 15:41:45 10° S 15:46:08 65° WSW 15:50:32 10° NNW
ASTEX 1 3.6 15:42:29 10° N 15:47:28 80° W 15:52:27 10° S
CZ-4 R/B 4.5 15:44:22 10° SSE 15:48:21 54° ENE 15:52:22 10° N
Cosmos 1777 Rocket 3.9 15:45:13 10° NNW 15:50:26 79° ENE 15:55:37 10° SSE
Unknown 3.0 15:47:24 10° NW 15:50:28 53° NE 15:52:38 17° ESE
Cosmos 1605 Rocket 3.9 15:48:24 10° N 15:54:33 77° E 16:00:37 10° S
Lacrosse 5 2.9 15:50:59 10° NNW 15:55:19 28° NE 15:57:39 20° E
ATLAS 3B R/B 2.8 15:49:04 10° S 15:55:34 49° ESE 16:01:57 10° NE
Cosmos 1300 2.8 15:55:13 10° S 15:58:55 52° E 16:02:38 10° NNE
Cosmos 1727 Rocket 3.9 15:54:29 10° S 16:00:38 76° E 16:06:47 10° N
Cosmos 1763 Rocket 4.3 15:56:19 10° SSE 16:00:54 30° E 16:04:57 12° NE
Cosmos 1076 Rocket 4.1 15:57:49 10° NNE 16:01:48 34° E 16:05:44 10° SE
CENTAUR R/B 2.4 15:56:56 10° SSW 16:02:26 58° ESE 16:08:45 10° NE
CSL-04 Debris 4.2 15:57:12 10° SSE 16:02:32 61° ENE 16:07:56 10° N
Delta 2 Rocket 3.0 16:00:30 10° W 16:04:05 61° N 16:05:32 30° ENE
Cosmos 2058 3.9 16:01:11 10° NNE 16:04:43 26° ENE 16:04:51 26° E
CZ-2D R/B 3.9 16:06:30 24° ESE 16:08:04 33° ENE 16:11:34 10° N
Cosmos 1812 Rocket 3.7 16:06:36 10° S 16:11:01 80° W 16:15:29 10° N
Cosmos 2173 Rocket 4.4 16:05:47 10° NNE 16:11:25 36° ENE 16:16:58 10° SE
Cosmos 2082 Rocket 2.3 16:06:50 10° N 16:12:24 51° ENE 16:17:40 11° SE
Cosmos 1939 Rocket 3.4 16:12:09 31° E 16:12:58 35° ENE 16:16:39 10° N
BREEZE-M DEB (TANK) 3.8 16:12:13 10° SSW 16:15:37 55° SE 16:23:54 14° NE
Cosmos 1943 Rocket 3.5 16:11:33 10° SSE 16:14:17 20° ESE 16:14:17 20° ESE
Envisat 3.9 16:13:22 10° S 16:18:16 50° W 16:23:12 10° NNW
OAO 3 Rocket 3.6 16:16:19 10° W 16:21:09 59° SSW 16:23:34 28° SE
YAOGAN 1 2.6 16:17:19 10° S 16:21:38 83° WSW 16:25:59 10° NNW
Cosmos 1802 Rocket 4.5 16:16:53 10° NNE 16:22:46 37° ENE 16:26:13 22° SE
Cosmos 1000 Rocket 4.4 16:18:28 10° S 16:24:30 61° E 16:30:38 10° NNE
Cosmos 44 4.0 16:20:00 10° SW 16:24:56 55° WNW 16:29:38 10° NNE
CZ-3 Stage 3 1.1 16:25:52 10° W 16:30:35 51° S 16:30:35 51° S
Meteor 2-1 Rocket 4.0 16:25:45 10° S 16:31:14 80° E 16:36:47 10° N
Cosmos 1898 Rocket 4.3 16:30:23 10° N 16:34:20 34° NE 16:34:20 34° NE
In-Cosmos 22 Rocket 4.2 16:30:07 10° N 16:35:26 51° E 16:37:25 35° SE
OAO 3 Copernicus 4.3 16:31:34 10° W 16:36:40 75° N 16:37:48 53° ENE
Cosmos 2100 Rocket 3.8 16:34:19 10° N 16:40:29 70° E 16:46:35 10° SSE
Shenzhou-11 Module 3.9 16:38:29 10° WNW 16:39:50 25° NW 16:39:50 25° NW
CZ-4 R/B 3.5 16:42:09 10° SSW 16:45:47 29° W 16:49:27 10° NW
Meteosat 1 Rocket2 3.8 16:43:31 10° WSW 16:46:31 34° SSW 16:46:31 34° SSW
Cosmos-2242 2.9 16:42:45 10° S 16:47:07 89° E 16:47:56 59° N
Cosmos 44 Rocket 4.0 16:42:36 10° S 16:46:08 39° SSE 16:46:08 39° SSE
Cosmos 2344 4.1 16:41:35 10° S 16:47:29 34° SE 16:47:29 34° SE
Cosmos 1461 4.3 16:49:41 10° NW 16:53:33 37° WSW 16:55:57 20° S
Cosmos 2016 Rocket 4.0 16:50:21 10° N 16:56:33 59° E 16:56:33 59° E
Gbstr 26 Del rocket 4.1 16:52:27 10° NW 16:59:04 88° NE 17:01:15 50° SE
Ariane Rocket 3.0 16:58:52 38° S 17:00:51 79° WSW 17:05:59 10° NNW
SJ 16-02 4.0 17:03:57 10° N 17:04:01 10° N 17:04:01 10° N
Delta 2 Rocket 4.4 17:05:29 10° WSW 17:11:06 43° S 17:11:06 43° S
SEDSat Delta rocket 4.5 17:09:57 10° WSW 17:13:08 34° SW 17:13:08 34° SW
ADEOS Rocket 3.8 17:11:34 10° NNE 17:21:33 43° S 17:25:47 10° S
Cosmos 2061 Rocket 4.3 17:28:37 10° NNW 17:34:44 62° W 17:34:51 61° W
Lacrosse 5 3.4 17:33:37 10° NW 17:36:54 33° W 17:36:54 33° W
Cosmos 2369 Rocket 4.0 17:33:36 10° SSW 17:35:28 22° SSW 17:35:28 22° SSW
ATLAS 3B R/B 4.3 17:40:43 10° WSW 17:46:25 28° NW 17:50:13 17° N
CENTAUR R/B 4.5 17:48:57 10° W 17:53:35 23° NW 17:56:59 16° N
Cosmos 1943 Rocket 4.2 17:54:01 10° SW 17:55:56 21° WSW 17:55:56 21° WSW
